Precipitable_Water
0.53 0.53 0.53 0.52 0.52 0.52 0.51 0.52 0.52 0.51 0.50 0.50 0.50 0.49 0.49 0.49 0.48 0.48 0.47 0.47 0.46 0.48 0.49 0.46 0.44 0.43 0.41 0.40 0.41 0.40 0.41 0.30 0.27 0.26 0.24 0.34 0.43 0.51 0.43 0.41 0.37 0.37 0.36 0.27 0.22 0.20 0.18 0.18 0.18 0.20 0.18 0.16 0.18 0.19 0.23 0.22 0.24 0.21 0.15 0.13 0.11 0.13 0.12 0.15 0.14 0.16 0.19 0.17 0.18 0.19 0.19 0.18 0.17 0.21 0.23 0.27 0.24 0.24 0.25 0.25 0.28 0.32 0.32 0.34 0.35 0.39 0.40 0.58
0.53 0.53 0.53 0.52 0.52 0.52 0.51 0.52 0.52 0.51 0.50 0.49 0.48 0.48 0.49 0.49 0.49 0.47 0.47 0.47 0.47 0.48 0.48 0.45 0.44 0.42 0.42 0.41 0.42 0.42 0.37 0.30 0.26 0.25 0.27 0.45 0.48 0.48 0.44 0.38 0.37 0.35 0.35 0.24 0.20 0.18 0.17 0.16 0.17 0.18 0.16 0.13 0.19 0.15 0.21 0.17 0.23 0.15 0.14 0.13 0.10 0.13 0.14 0.18 0.18 0.19 0.18 0.17 0.19 0.20 0.21 0.19 0.18 0.21 0.24 0.21 0.21 0.22 0.22 0.23 0.25 0.26 0.29 0.33 0.36 0.39 0.42 0.55
0.53 0.53 0.51 0.53 0.53 0.52 0.52 0.51 0.51 0.51 0.51 0.49 0.47 0.48 0.48 0.48 0.49 0.48 0.48 0.48 0.48 0.48 0.47 0.44 0.44 0.43 0.41 0.43 0.43 0.42 0.33 0.27 0.22 0.20 0.29 0.45 0.46 0.46 0.42 0.39 0.39 0.37 0.31 0.24 0.24 0.22 0.19 0.18 0.18 0.17 0.15 0.13 0.15 0.12 0.16 0.14 0.19 0.17 0.13 0.10 0.11 0.16 0.17 0.19 0.19 0.19 0.20 0.21 0.19 0.19 0.21 0.20 0.21 0.21 0.26 0.20 0.21 0.22 0.20 0.20 0.23 0.23 0.24 0.28 0.33 0.39 0.44 0.51
0.53 0.53 0.52 0.52 0.52 0.53 0.52 0.51 0.51 0.50 0.49 0.49 0.48 0.47 0.47 0.48 0.47 0.48 0.49 0.50 0.49 0.49 0.47 0.44 0.44 0.43 0.43 0.42 0.44 0.42 0.29 0.21 0.17 0.26 0.36 0.45 0.45 0.44 0.41 0.40 0.41 0.38 0.35 0.30 0.28 0.24 0.23 0.21 0.19 0.18 0.15 0.13 0.15 0.16 0.12 0.16 0.12 0.15 0.12 0.10 0.12 0.16 0.15 0.18 0.20 0.20 0.21 0.23 0.21 0.21 0.22 0.20 0.22 0.23 0.23 0.22 0.19 0.20 0.21 0.24 0.23 0.23 0.25 0.27 0.32 0.38 0.44 0.47
0.53 0.52 0.53 0.52 0.52 0.51 0.51 0.51 0.50 0.50 0.48 0.47 0.47 0.46 0.46 0.47 0.48 0.49 0.50 0.50 0.50 0.49 0.47 0.46 0.44 0.43 0.43 0.45 0.44 0.40 0.27 0.13 0.17 0.31 0.42 0.46 0.44 0.42 0.41 0.42 0.43 0.38 0.34 0.31 0.27 0.24 0.22 0.19 0.18 0.18 0.16 0.12 0.15 0.14 0.13 0.16 0.18 0.15 0.13 0.14 0.15 0.17 0.15 0.19 0.21 0.23 0.23 0.24 0.22 0.22 0.20 0.19 0.25 0.24 0.23 0.22 0.19 0.18 0.21 0.25 0.26 0.26 0.27 0.28 0.30 0.36 0.43 0.44
0.53 0.52 0.52 0.53 0.52 0.52 0.52 0.50 0.50 0.49 0.47 0.46 0.46 0.46 0.46 0.47 0.48 0.49 0.49 0.49 0.50 0.49 0.47 0.46 0.46 0.43 0.45 0.46 0.42 0.33 0.20 0.09 0.30 0.32 0.47 0.44 0.41 0.42 0.43 0.42 0.42 0.38 0.35 0.29 0.24 0.23 0.20 0.18 0.18 0.15 0.15 0.14 0.13 0.11 0.15 0.16 0.20 0.12 0.16 0.16 0.18 0.19 0.17 0.21 0.22 0.23 0.24 0.23 0.22 0.21 0.22 0.24 0.22 0.21 0.24 0.23 0.21 0.23 0.27 0.28 0.29 0.29 0.29 0.30 0.32 0.36 0.38 0.41
0.52 0.53 0.52 0.53 0.53 0.52 0.51 0.51 0.48 0.47 0.46 0.46 0.46 0.45 0.46 0.48 0.47 0.48 0.49 0.50 0.48 0.49 0.48 0.47 0.46 0.47 0.45 0.45 0.35 0.27 0.19 0.20 0.34 0.45 0.46 0.42 0.41 0.41 0.42 0.41 0.41 0.37 0.34 0.29 0.24 0.21 0.19 0.17 0.18 0.16 0.15 0.14 0.15 0.15 0.17 0.16 0.20 0.16 0.14 0.18 0.18 0.21 0.19 0.23 0.23 0.24 0.24 0.23 0.22 0.24 0.25 0.21 0.22 0.19 0.25 0.22 0.25 0.27 0.29 0.30 0.31 0.32 0.33 0.33 0.31 0.34 0.35 0.37
0.54 0.52 0.54 0.49 0.55 0.53 0.51 0.51 0.50 0.47 0.47 0.47 0.45 0.46 0.47 0.47 0.48 0.47 0.48 0.49 0.48 0.47 0.49 0.47 0.47 0.46 0.46 0.35 0.24 0.22 0.20 0.20 0.36 0.50 0.46 0.43 0.42 0.38 0.42 0.38 0.38 0.36 0.31 0.28 0.25 0.20 0.20 0.18 0.17 0.19 0.16 0.13 0.16 0.15 0.18 0.17 0.18 0.15 0.15 0.19 0.20 0.22 0.22 0.24 0.24 0.23 0.24 0.23 0.25 0.24 0.21 0.21 0.24 0.23 0.25 0.22 0.26 0.28 0.30 0.32 0.32 0.33 0.33 0.33 0.33 0.33 0.35 0.37
0.56 0.52 0.53 0.53 0.55 0.53 0.50 0.50 0.50 0.49 0.48 0.47 0.47 0.46 0.47 0.46 0.47 0.47 0.48 0.48 0.48 0.47 0.47 0.48 0.48 0.47 0.47 0.30 0.22 0.17 0.17 0.36 0.47 0.47 0.44 0.42 0.40 0.37 0.38 0.33 0.37 0.34 0.32 0.31 0.28 0.24 0.21 0.19 0.20 0.20 0.15 0.15 0.20 0.16 0.18 0.16 0.13 0.19 0.18 0.21 0.21 0.21 0.23 0.24 0.24 0.24 0.24 0.24 0.24 0.22 0.21 0.23 0.25 0.27 0.23 0.24 0.27 0.30 0.32 0.32 0.32 0.33 0.32 0.32 0.32 0.33 0.34 0.35
0.58 0.56 0.53 0.55 0.53 0.51 0.51 0.50 0.48 0.49 0.48 0.48 0.46 0.47 0.46 0.46 0.46 0.47 0.47 0.48 0.47 0.47 0.48 0.49 0.47 0.47 0.35 0.24 0.21 0.15 0.24 0.51 0.51 0.46 0.43 0.42 0.39 0.36 0.35 0.35 0.36 0.35 0.31 0.31 0.28 0.24 0.22 0.21 0.21 0.22 0.22 0.19 0.22 0.18 0.21 0.18 0.15 0.22 0.20 0.21 0.20 0.22 0.23 0.25 0.22 0.24 0.25 0.24 0.25 0.21 0.21 0.22 0.26 0.25 0.19 0.27 0.29 0.31 0.31 0.31 0.33 0.32 0.32 0.33 0.34 0.35 0.36 0.35
0.61 0.59 0.57 0.56 0.54 0.52 0.51 0.49 0.49 0.47 0.47 0.48 0.48 0.47 0.48 0.46 0.46 0.46 0.48 0.46 0.47 0.48 0.49 0.48 0.50 0.39 0.28 0.24 0.18 0.15 0.47 0.50 0.49 0.44 0.41 0.40 0.36 0.34 0.33 0.36 0.38 0.34 0.33 0.32 0.30 0.28 0.26 0.25 0.26 0.25 0.23 0.18 0.21 0.20 0.20 0.19 0.24 0.22 0.22 0.22 0.21 0.22 0.23 0.24 0.24 0.24 0.25 0.23 0.26 0.24 0.23 0.25 0.26 0.25 0.22 0.26 0.31 0.33 0.30 0.31 0.32 0.33 0.33 0.34 0.35 0.35 0.36 0.37
0.65 0.63 0.60 0.58 0.56 0.53 0.52 0.52 0.49 0.48 0.49 0.48 0.48 0.48 0.48 0.47 0.48 0.47 0.48 0.47 0.48 0.49 0.50 0.49 0.49 0.40 0.29 0.24 0.19 0.20 0.51 0.54 0.51 0.43 0.39 0.38 0.35 0.36 0.38 0.40 0.40 0.37 0.34 0.30 0.31 0.32 0.31 0.28 0.27 0.23 0.18 0.25 0.18 0.23 0.21 0.26 0.24 0.24 0.24 0.18 0.20 0.22 0.21 0.24 0.23 0.24 0.26 0.23 0.27 0.27 0.23 0.21 0.22 0.19 0.25 0.28 0.31 0.31 0.30 0.30 0.31 0.32 0.33 0.34 0.35 0.36 0.37 0.37
0.69 0.67 0.64 0.61 0.58 0.56 0.54 0.53 0.51 0.50 0.49 0.49 0.49 0.48 0.48 0.48 0.48 0.49 0.48 0.47 0.48 0.49 0.50 0.50 0.48 0.41 0.25 0.16 0.21 0.37 0.50 0.55 0.52 0.43 0.39 0.39 0.37 0.39 0.39 0.42 0.41 0.40 0.37 0.34 0.32 0.35 0.35 0.33 0.31 0.24 0.26 0.24 0.23 0.19 0.26 0.29 0.26 0.26 0.24 0.21 0.20 0.20 0.19 0.24 0.27 0.27 0.26 0.26 0.28 0.27 0.13 0.15 0.19 0.23 0.26 0.29 0.29 0.30 0.28 0.28 0.30 0.31 0.32 0.33 0.34 0.35 0.36 0.38
0.72 0.69 0.67 0.64 0.61 0.59 0.57 0.56 0.54 0.52 0.51 0.49 0.49 0.48 0.48 0.49 0.49 0.49 0.49 0.49 0.50 0.50 0.51 0.50 0.46 0.33 0.22 0.17 0.36 0.43 0.52 0.57 0.55 0.44 0.39 0.41 0.34 0.33 0.38 0.41 0.42 0.42 0.43 0.38 0.39 0.40 0.36 0.37 0.34 0.30 0.32 0.26 0.22 0.33 0.26 0.27 0.28 0.20 0.23 0.23 0.18 0.16 0.16 0.24 0.25 0.26 0.23 0.28 0.28 0.27 0.14 0.14 0.19 0.22 0.26 0.27 0.28 0.27 0.25 0.27 0.28 0.30 0.31 0.33 0.34 0.34 0.35 0.37
0.72 0.70 0.68 0.65 0.64 0.61 0.59 0.58 0.56 0.54 0.53 0.51 0.49 0.48 0.49 0.46 0.48 0.50 0.51 0.49 0.52 0.52 0.52 0.51 0.42 0.27 0.17 0.20 0.35 0.46 0.52 0.52 0.46 0.44 0.46 0.38 0.35 0.34 0.36 0.40 0.40 0.41 0.42 0.41 0.40 0.41 0.40 0.38 0.33 0.28 0.25 0.31 0.30 0.26 0.21 0.22 0.24 0.24 0.18 0.15 0.19 0.16 0.17 0.22 0.27 0.26 0.21 0.26 0.28 0.24 0.15 0.15 0.18 0.21 0.25 0.27 0.27 0.27 0.25 0.26 0.28 0.29 0.31 0.32 0.34 0.34 0.35 0.36
0.74 0.70 0.69 0.69 0.65 0.64 0.62 0.61 0.59 0.57 0.55 0.53 0.50 0.49 0.48 0.51 0.46 0.49 0.52 0.52 0.54 0.55 0.53 0.39 0.32 0.29 0.19 0.15 0.25 0.49 0.42 0.31 0.37 0.49 0.49 0.44 0.38 0.35 0.42 0.40 0.41 0.41 0.40 0.40 0.43 0.42 0.40 0.37 0.28 0.28 0.27 0.28 0.24 0.21 0.19 0.18 0.19 0.21 0.17 0.14 0.15 0.18 0.18 0.19 0.24 0.26 0.26 0.25 0.26 0.22 0.15 0.18 0.17 0.22 0.25 0.28 0.27 0.27 0.26 0.26 0.28 0.29 0.31 0.32 0.34 0.35 0.36 0.36
0.76 0.74 0.71 0.69 0.69 0.66 0.65 0.65 0.62 0.59 0.57 0.54 0.52 0.52 0.51 0.50 0.51 0.49 0.50 0.54 0.51 0.53 0.45 0.29 0.30 0.28 0.14 0.22 0.38 0.26 0.26 0.34 0.47 0.46 0.46 0.45 0.42 0.40 0.40 0.38 0.36 0.37 0.40 0.40 0.40 0.38 0.37 0.30 0.32 0.28 0.29 0.23 0.23 0.21 0.15 0.13 0.13 0.15 0.19 0.15 0.17 0.15 0.16 0.14 0.22 0.25 0.25 0.24 0.19 0.23 0.18 0.17 0.19 0.22 0.24 0.26 0.27 0.26 0.25 0.26 0.27 0.29 0.30 0.32 0.33 0.34 0.34 0.35
0.79 0.76 0.75 0.73 0.71 0.71 0.68 0.65 0.65 0.61 0.59 0.56 0.54 0.51 0.48 0.51 0.54 0.48 0.47 0.45 0.48 0.41 0.36 0.41 0.36 0.22 0.18 0.27 0.20 0.20 0.35 0.35 0.37 0.42 0.43 0.44 0.42 0.41 0.39 0.35 0.36 0.36 0.36 0.33 0.37 0.30 0.34 0.27 0.29 0.20 0.22 0.21 0.21 0.19 0.13 0.10 0.12 0.13 0.15 0.14 0.14 0.17 0.17 0.15 0.15 0.21 0.23 0.23 0.20 0.20 0.19 0.17 0.18 0.21 0.23 0.25 0.27 0.26 0.24 0.25 0.26 0.28 0.29 0.30 0.31 0.32 0.33 0.34
0.84 0.80 0.77 0.76 0.73 0.72 0.71 0.68 0.64 0.64 0.62 0.57 0.55 0.56 0.54 0.54 0.51 0.47 0.36 0.34 0.24 0.21 0.17 0.20 0.18 0.13 0.12 0.17 0.29 0.36 0.37 0.41 0.44 0.41 0.36 0.38 0.41 0.42 0.41 0.40 0.37 0.32 0.26 0.25 0.28 0.27 0.31 0.26 0.27 0.20 0.16 0.17 0.17 0.18 0.15 0.16 0.17 0.16 0.16 0.15 0.15 0.13 0.14 0.14 0.18 0.23 0.23 0.19 0.18 0.18 0.15 0.16 0.18 0.19 0.21 0.23 0.26 0.25 0.24 0.25 0.26 0.27 0.28 0.29 0.30 0.31 0.32 0.32
0.94 0.89 0.82 0.79 0.76 0.74 0.71 0.69 0.67 0.65 0.62 0.56 0.50 0.45 0.35 0.25 0.24 0.24 0.33 0.31 0.21 0.20 0.20 0.22 0.22 0.23 0.25 0.27 0.28 0.40 0.49 0.47 0.32 0.37 0.40 0.43 0.38 0.36 0.35 0.35 0.32 0.31 0.26 0.19 0.24 0.26 0.29 0.19 0.16 0.14 0.15 0.17 0.20 0.21 0.22 0.22 0.21 0.20 0.19 0.17 0.16 0.15 0.15 0.19 0.20 0.24 0.26 0.21 0.18 0.18 0.19 0.18 0.18 0.19 0.20 0.22 0.24 0.24 0.23 0.23 0.24 0.25 0.26 0.27 0.28 0.29 0.30 0.31
1.03 0.98 0.92 0.87 0.80 0.76 0.73 0.71 0.68 0.67 0.64 0.56 0.50 0.30 0.21 0.21 0.17 0.16 0.21 0.24 0.28 0.26 0.23 0.28 0.24 0.21 0.21 0.31 0.36 0.34 0.28 0.32 0.38 0.35 0.37 0.48 0.40 0.35 0.30 0.30 0.26 0.21 0.23 0.25 0.23 0.30 0.26 0.17 0.16 0.16 0.19 0.21 0.22 0.24 0.24 0.23 0.22 0.19 0.18 0.17 0.16 0.16 0.13 0.19 0.20 0.24 0.27 0.20 0.17 0.20 0.19 0.17 0.18 0.19 0.21 0.23 0.23 0.20 0.21 0.22 0.23 0.24 0.25 0.26 0.27 0.27 0.28 0.30
1.12 1.06 1.00 0.95 0.90 0.81 0.75 0.72 0.70 0.67 0.65 0.57 0.45 0.28 0.28 0.29 0.35 0.39 0.29 0.19 0.23 0.26 0.27 0.27 0.30 0.25 0.33 0.32 0.41 0.42 0.36 0.26 0.29 0.35 0.44 0.42 0.35 0.25 0.28 0.26 0.22 0.18 0.25 0.25 0.24 0.21 0.18 0.15 0.16 0.20 0.24 0.25 0.24 0.24 0.24 0.22 0.20 0.20 0.18 0.17 0.15 0.15 0.18 0.20 0.21 0.24 0.25 0.22 0.17 0.20 0.17 0.16 0.18 0.19 0.21 0.22 0.22 0.22 0.24 0.24 0.24 0.24 0.24 0.25 0.26 0.27 0.28 0.30
1.20 1.14 1.09 1.02 0.97 0.91 0.83 0.75 0.72 0.69 0.59 0.47 0.38 0.36 0.36 0.40 0.50 0.52 0.36 0.26 0.21 0.29 0.27 0.25 0.21 0.22 0.25 0.35 0.36 0.40 0.25 0.22 0.21 0.31 0.36 0.37 0.32 0.28 0.27 0.22 0.21 0.22 0.23 0.23 0.17 0.16 0.14 0.16 0.20 0.24 0.25 0.22 0.22 0.23 0.22 0.22 0.21 0.19 0.18 0.16 0.13 0.17 0.15 0.12 0.20 0.24 0.24 0.22 0.18 0.20 0.18 0.17 0.19 0.20 0.19 0.20 0.22 0.22 0.24 0.25 0.26 0.26 0.25 0.25 0.25 0.27 0.28 0.28
1.18 1.20 1.17 1.12 1.04 0.98 0.92 0.83 0.79 0.65 0.54 0.50 0.43 0.39 0.54 0.56 0.51 0.45 0.29 0.19 0.18 0.21 0.26 0.27 0.26 0.23 0.21 0.21 0.33 0.30 0.22 0.23 0.24 0.26 0.43 0.35 0.27 0.33 0.27 0.24 0.21 0.22 0.19 0.21 0.20 0.17 0.15 0.21 0.27 0.25 0.24 0.22 0.19 0.21 0.20 0.19 0.17 0.20 0.19 0.17 0.16 0.16 0.17 0.16 0.17 0.21 0.24 0.25 0.25 0.21 0.18 0.15 0.15 0.14 0.15 0.19 0.24 0.23 0.23 0.25 0.25 0.26 0.27 0.28 0.29 0.30 0.30 0.29
1.22 1.20 1.20 1.20 1.13 1.05 0.97 0.92 0.71 0.61 0.62 0.52 0.46 0.52 0.59 0.60 0.53 0.48 0.27 0.22 0.21 0.20 0.33 0.28 0.32 0.27 0.26 0.40 0.38 0.26 0.27 0.26 0.26 0.32 0.40 0.36 0.30 0.28 0.26 0.30 0.25 0.19 0.21 0.24 0.23 0.20 0.19 0.24 0.29 0.25 0.23 0.23 0.21 0.19 0.20 0.19 0.16 0.17 0.20 0.19 0.18 0.19 0.18 0.19 0.21 0.19 0.17 0.16 0.22 0.19 0.11 0.10 0.14 0.16 0.16 0.18 0.20 0.19 0.22 0.22 0.22 0.24 0.27 0.29 0.28 0.29 0.30 0.32
1.23 1.24 1.22 1.20 1.20 1.12 1.06 0.78 0.71 0.75 0.61 0.44 0.50 0.57 0.60 0.61 0.64 0.47 0.28 0.20 0.16 0.20 0.29 0.19 0.33 0.22 0.35 0.26 0.31 0.28 0.27 0.19 0.28 0.32 0.37 0.38 0.43 0.31 0.30 0.26 0.26 0.18 0.22 0.23 0.21 0.22 0.21 0.27 0.26 0.23 0.22 0.22 0.21 0.19 0.21 0.21 0.16 0.15 0.16 0.22 0.21 0.21 0.21 0.20 0.19 0.19 0.13 0.10 0.20 0.25 0.12 0.09 0.14 0.12 0.13 0.16 0.17 0.17 0.20 0.21 0.21 0.24 0.26 0.27 0.28 0.30 0.31 0.32
1.22 1.25 1.25 1.23 1.19 1.18 0.93 0.72 0.91 0.80 0.56 0.51 0.60 0.63 0.64 0.60 0.66 0.54 0.26 0.20 0.16 0.22 0.20 0.27 0.28 0.29 0.34 0.31 0.28 0.25 0.12 0.13 0.32 0.36 0.34 0.41 0.32 0.39 0.24 0.23 0.26 0.26 0.28 0.28 0.21 0.17 0.25 0.24 0.24 0.24 0.22 0.20 0.19 0.17 0.20 0.20 0.17 0.15 0.23 0.24 0.23 0.21 0.19 0.19 0.19 0.19 0.16 0.21 0.23 0.25 0.21 0.14 0.11 0.12 0.15 0.18 0.17 0.17 0.18 0.18 0.21 0.24 0.25 0.27 0.29 0.31 0.33 0.35
1.19 1.24 1.26 1.25 1.21 1.18 1.02 1.02 0.93 0.77 0.69 0.70 0.73 0.64 0.69 0.67 0.64 0.51 0.28 0.16 0.14 0.27 0.21 0.27 0.29 0.46 0.35 0.37 0.32 0.20 0.19 0.32 0.18 0.28 0.39 0.41 0.38 0.32 0.26 0.23 0.21 0.21 0.24 0.22 0.12 0.20 0.22 0.20 0.21 0.19 0.20 0.19 0.17 0.19 0.21 0.23 0.18 0.19 0.26 0.26 0.23 0.23 0.22 0.21 0.20 0.19 0.19 0.17 0.13 0.19 0.23 0.14 0.11 0.13 0.18 0.19 0.15 0.15 0.16 0.17 0.20 0.22 0.25 0.27 0.30 0.33 0.35 0.37
1.14 1.16 1.22 1.27 1.25 1.22 1.17 1.05 0.98 0.90 0.96 0.92 0.80 0.70 0.69 0.72 0.52 0.33 0.25 0.16 0.23 0.24 0.45 0.25 0.49 0.37 0.35 0.38 0.30 0.28 0.24 0.28 0.19 0.31 0.40 0.41 0.41 0.34 0.22 0.24 0.26 0.26 0.27 0.23 0.15 0.19 0.22 0.23 0.23 0.23 0.20 0.17 0.21 0.23 0.24 0.24 0.18 0.26 0.29 0.29 0.27 0.26 0.25 0.23 0.20 0.19 0.19 0.16 0.10 0.16 0.19 0.11 0.09 0.12 0.13 0.17 0.16 0.14 0.15 0.18 0.20 0.22 0.25 0.28 0.31 0.33 0.36 0.38
1.03 1.11 1.17 1.23 1.23 1.17 1.11 1.12 1.02 1.09 1.14 1.08 0.89 0.84 0.77 0.59 0.38 0.26 0.21 0.15 0.27 0.19 0.29 0.33 0.31 0.27 0.33 0.27 0.27 0.29 0.24 0.27 0.32 0.36 0.38 0.33 0.35 0.36 0.33 0.36 0.27 0.24 0.23 0.27 0.23 0.23 0.27 0.32 0.31 0.25 0.20 0.22 0.24 0.27 0.27 0.27 0.27 0.32 0.30 0.26 0.25 0.25 0.25 0.25 0.24 0.22 0.19 0.11 0.11 0.17 0.19 0.15 0.09 0.11 0.11 0.12 0.12 0.15 0.17 0.19 0.22 0.24 0.27 0.28 0.31 0.34 0.36 0.38
0.87 0.98 1.08 1.16 1.08 1.12 1.14 0.99 1.05 1.15 1.17 1.15 0.95 0.90 0.73 0.50 0.33 0.24 0.18 0.19 0.25 0.27 0.34 0.32 0.27 0.36 0.28 0.25 0.22 0.30 0.29 0.31 0.30 0.32 0.29 0.35 0.31 0.32 0.30 0.26 0.32 0.25 0.23 0.23 0.22 0.25 0.26 0.27 0.24 0.26 0.30 0.28 0.29 0.25 0.31 0.32 0.31 0.29 0.25 0.23 0.22 0.20 0.23 0.21 0.20 0.23 0.13 0.08 0.16 0.19 0.20 0.20 0.10 0.10 0.13 0.16 0.18 0.19 0.18 0.19 0.22 0.24 0.26 0.28 0.31 0.35 0.37 0.39
0.75 0.83 0.93 1.02 1.10 1.18 1.01 0.95 1.16 1.21 1.16 1.14 0.95 0.78 0.60 0.39 0.40 0.26 0.21 0.29 0.20 0.24 0.27 0.27 0.32 0.30 0.28 0.30 0.27 0.27 0.26 0.30 0.32 0.30 0.26 0.27 0.25 0.24 0.23 0.17 0.21 0.15 0.14 0.15 0.14 0.23 0.20 0.21 0.25 0.27 0.32 0.27 0.24 0.22 0.26 0.29 0.29 0.27 0.24 0.22 0.14 0.12 0.13 0.10 0.14 0.10 0.11 0.08 0.17 0.22 0.24 0.19 0.14 0.13 0.14 0.17 0.19 0.20 0.22 0.23 0.23 0.25 0.27 0.28 0.31 0.34 0.36 0.38
0.71 0.72 0.79 0.88 0.98 0.97 1.05 1.18 1.25 1.23 1.20 1.12 0.88 0.71 0.50 0.39 0.29 0.34 0.29 0.28 0.24 0.31 0.29 0.34 0.30 0.31 0.30 0.29 0.27 0.30 0.33 0.24 0.34 0.32 0.31 0.31 0.27 0.26 0.28 0.24 0.23 0.17 0.11 0.14 0.15 0.16 0.16 0.23 0.24 0.25 0.28 0.30 0.26 0.16 0.19 0.19 0.24 0.23 0.19 0.17 0.13 0.10 0.10 0.07 0.09 0.12 0.11 0.12 0.18 0.19 0.26 0.15 0.15 0.17 0.19 0.18 0.20 0.23 0.25 0.25 0.25 0.26 0.28 0.30 0.32 0.34 0.35 0.38
0.69 0.68 0.64 0.73 0.83 0.91 0.98 1.06 1.13 1.18 1.14 1.08 0.84 0.62 0.50 0.37 0.32 0.41 0.36 0.33 0.34 0.42 0.40 0.34 0.35 0.35 0.32 0.26 0.27 0.31 0.26 0.31 0.31 0.30 0.32 0.28 0.28 0.23 0.26 0.28 0.27 0.21 0.18 0.18 0.14 0.15 0.11 0.11 0.16 0.21 0.17 0.27 0.25 0.20 0.18 0.16 0.20 0.20 0.23 0.19 0.13 0.12 0.09 0.07 0.08 0.07 0.07 0.09 0.15 0.22 0.16 0.11 0.10 0.10 0.21 0.22 0.22 0.25 0.25 0.26 0.27 0.28 0.29 0.31 0.33 0.35 0.35 0.38
0.67 0.66 0.65 0.67 0.71 0.83 0.91 0.96 1.00 1.04 1.00 0.91 0.70 0.55 0.39 0.36 0.39 0.37 0.36 0.38 0.38 0.42 0.38 0.44 0.36 0.34 0.32 0.32 0.34 0.33 0.31 0.26 0.34 0.31 0.29 0.27 0.23 0.24 0.22 0.24 0.28 0.27 0.23 0.15 0.17 0.17 0.13 0.12 0.18 0.25 0.25 0.27 0.21 0.26 0.26 0.23 0.22 0.25 0.26 0.27 0.18 0.13 0.15 0.10 0.11 0.11 0.11 0.11 0.12 0.15 0.12 0.13 0.12 0.20 0.24 0.23 0.24 0.23 0.24 0.24 0.26 0.27 0.28 0.30 0.31 0.33 0.36 0.39
0.57 0.58 0.64 0.57 0.58 0.70 0.86 0.92 0.94 0.93 0.83 0.71 0.56 0.45 0.41 0.45 0.41 0.48 0.44 0.50 0.45 0.39 0.42 0.42 0.40 0.33 0.32 0.32 0.38 0.33 0.39 0.29 0.33 0.32 0.30 0.29 0.27 0.24 0.26 0.26 0.26 0.26 0.21 0.16 0.19 0.14 0.16 0.13 0.22 0.25 0.29 0.26 0.26 0.29 0.27 0.27 0.14 0.21 0.25 0.17 0.17 0.25 0.20 0.16 0.16 0.18 0.17 0.14 0.10 0.13 0.13 0.13 0.18 0.18 0.19 0.19 0.20 0.20 0.23 0.24 0.25 0.26 0.28 0.30 0.30 0.34 0.37 0.39
0.44 0.50 0.45 0.57 0.58 0.70 0.78 0.88 0.90 0.83 0.73 0.55 0.46 0.39 0.46 0.52 0.59 0.57 0.59 0.52 0.50 0.49 0.43 0.33 0.36 0.34 0.32 0.31 0.33 0.36 0.37 0.37 0.35 0.32 0.26 0.32 0.27 0.29 0.26 0.27 0.30 0.29 0.27 0.21 0.19 0.23 0.15 0.14 0.25 0.24 0.21 0.29 0.34 0.33 0.31 0.30 0.27 0.25 0.17 0.19 0.28 0.30 0.27 0.18 0.12 0.15 0.14 0.10 0.10 0.13 0.10 0.09 0.11 0.08 0.16 0.18 0.19 0.20 0.21 0.22 0.24 0.25 0.28 0.29 0.30 0.33 0.36 0.39
0.37 0.40 0.42 0.45 0.54 0.68 0.78 0.82 0.82 0.74 0.63 0.50 0.35 0.39 0.51 0.46 0.58 0.58 0.64 0.60 0.58 0.55 0.45 0.40 0.39 0.43 0.36 0.35 0.34 0.36 0.41 0.34 0.35 0.35 0.29 0.32 0.24 0.31 0.27 0.27 0.31 0.29 0.28 0.30 0.22 0.22 0.24 0.16 0.21 0.28 0.28 0.31 0.36 0.34 0.30 0.33 0.35 0.24 0.20 0.33 0.19 0.17 0.15 0.21 0.17 0.11 0.10 0.10 0.10 0.11 0.12 0.12 0.12 0.10 0.14 0.14 0.16 0.18 0.20 0.22 0.24 0.25 0.27 0.28 0.30 0.33 0.38 0.41
0.34 0.30 0.23 0.38 0.53 0.63 0.73 0.82 0.75 0.63 0.50 0.39 0.34 0.31 0.39 0.43 0.52 0.55 0.59 0.60 0.61 0.55 0.48 0.48 0.41 0.45 0.43 0.39 0.39 0.43 0.43 0.35 0.38 0.35 0.30 0.33 0.26 0.30 0.27 0.28 0.27 0.31 0.32 0.32 0.26 0.26 0.26 0.17 0.18 0.30 0.29 0.32 0.33 0.31 0.19 0.23 0.33 0.35 0.34 0.28 0.32 0.23 0.18 0.16 0.16 0.16 0.14 0.10 0.11 0.09 0.10 0.08 0.11 0.12 0.15 0.15 0.17 0.19 0.21 0.23 0.25 0.27 0.28 0.29 0.32 0.35 0.39 0.42
0.25 0.19 0.17 0.44 0.57 0.63 0.72 0.73 0.63 0.56 0.43 0.30 0.32 0.32 0.38 0.35 0.44 0.53 0.57 0.56 0.53 0.52 0.49 0.49 0.51 0.43 0.45 0.44 0.45 0.41 0.45 0.43 0.40 0.38 0.35 0.36 0.31 0.37 0.32 0.35 0.28 0.30 0.33 0.34 0.29 0.33 0.25 0.26 0.17 0.27 0.34 0.33 0.23 0.27 0.20 0.21 0.21 0.25 0.25 0.24 0.26 0.24 0.28 0.26 0.25 0.18 0.14 0.12 0.11 0.10 0.09 0.09 0.11 0.16 0.18 0.19 0.20 0.22 0.24 0.24 0.27 0.27 0.30 0.33 0.35 0.38 0.41 0.43
0.34 0.21 0.23 0.49 0.59 0.63 0.67 0.58 0.46 0.41 0.38 0.38 0.37 0.34 0.38 0.36 0.40 0.44 0.51 0.58 0.56 0.62 0.54 0.52 0.51 0.48 0.47 0.45 0.45 0.48 0.44 0.43 0.43 0.40 0.39 0.37 0.35 0.28 0.36 0.35 0.35 0.32 0.36 0.36 0.33 0.32 0.26 0.25 0.19 0.25 0.26 0.24 0.22 0.29 0.28 0.27 0.26 0.23 0.21 0.20 0.20 0.19 0.18 0.16 0.14 0.24 0.21 0.16 0.13 0.12 0.10 0.12 0.13 0.20 0.20 0.21 0.22 0.25 0.27 0.28 0.26 0.27 0.33 0.37 0.38 0.40 0.42 0.44
0.23 0.10 0.14 0.53 0.66 0.61 0.46 0.31 0.34 0.42 0.39 0.35 0.31 0.33 0.33 0.45 0.42 0.43 0.47 0.53 0.53 0.51 0.61 0.55 0.55 0.51 0.50 0.48 0.47 0.48 0.46 0.43 0.43 0.41 0.42 0.37 0.40 0.36 0.39 0.44 0.41 0.39 0.34 0.30 0.29 0.32 0.31 0.28 0.24 0.21 0.21 0.21 0.26 0.33 0.36 0.36 0.34 0.31 0.28 0.22 0.24 0.23 0.21 0.17 0.12 0.16 0.21 0.21 0.21 0.19 0.15 0.12 0.16 0.19 0.22 0.23 0.26 0.28 0.30 0.30 0.29 0.31 0.33 0.38 0.41 0.43 0.45 0.45
0.20 0.15 0.47 0.47 0.69 0.57 0.38 0.25 0.29 0.31 0.33 0.35 0.42 0.44 0.49 0.43 0.39 0.43 0.42 0.46 0.44 0.51 0.50 0.49 0.49 0.48 0.50 0.48 0.47 0.47 0.47 0.43 0.44 0.42 0.43 0.43 0.41 0.42 0.44 0.46 0.46 0.42 0.40 0.36 0.37 0.38 0.37 0.29 0.24 0.24 0.27 0.31 0.35 0.37 0.38 0.39 0.36 0.32 0.31 0.29 0.27 0.23 0.24 0.22 0.19 0.20 0.18 0.20 0.19 0.19 0.17 0.14 0.16 0.22 0.24 0.26 0.29 0.31 0.31 0.32 0.33 0.36 0.37 0.37 0.40 0.44 0.47 0.47
0.23 0.22 0.26 0.47 0.59 0.64 0.36 0.19 0.21 0.23 0.27 0.32 0.38 0.40 0.48 0.44 0.42 0.40 0.40 0.43 0.41 0.42 0.42 0.44 0.49 0.54 0.50 0.56 0.52 0.46 0.51 0.40 0.48 0.45 0.42 0.45 0.41 0.49 0.49 0.48 0.49 0.44 0.41 0.39 0.34 0.40 0.32 0.34 0.28 0.23 0.22 0.24 0.27 0.31 0.31 0.36 0.35 0.29 0.25 0.28 0.30 0.30 0.30 0.30 0.29 0.29 0.21 0.21 0.18 0.17 0.14 0.14 0.16 0.24 0.25 0.28 0.29 0.29 0.31 0.33 0.37 0.35 0.37 0.40 0.42 0.44 0.46 0.49
0.26 0.28 0.25 0.30 0.48 0.46 0.33 0.32 0.23 0.24 0.24 0.24 0.28 0.31 0.35 0.40 0.46 0.44 0.41 0.40 0.46 0.45 0.44 0.43 0.47 0.51 0.51 0.56 0.53 0.55 0.55 0.49 0.44 0.51 0.49 0.48 0.44 0.51 0.52 0.51 0.52 0.47 0.47 0.48 0.45 0.46 0.35 0.33 0.30 0.24 0.20 0.17 0.15 0.15 0.16 0.19 0.23 0.28 0.30 0.29 0.30 0.29 0.28 0.27 0.23 0.25 0.20 0.21 0.21 0.19 0.16 0.17 0.19 0.24 0.25 0.27 0.29 0.29 0.32 0.35 0.36 0.38 0.37 0.41 0.45 0.47 0.47 0.47
0.24 0.13 0.22 0.20 0.28 0.34 0.31 0.42 0.37 0.30 0.27 0.26 0.26 0.29 0.33 0.32 0.41 0.46 0.45 0.43 0.47 0.46 0.45 0.43 0.47 0.52 0.49 0.49 0.47 0.49 0.49 0.55 0.49 0.47 0.48 0.45 0.46 0.50 0.53 0.54 0.53 0.51 0.51 0.51 0.51 0.48 0.39 0.39 0.35 0.31 0.27 0.23 0.22 0.22 0.25 0.28 0.29 0.25 0.26 0.27 0.27 0.31 0.32 0.30 0.29 0.26 0.21 0.20 0.20 0.22 0.21 0.18 0.18 0.21 0.24 0.26 0.28 0.29 0.30 0.34 0.35 0.36 0.40 0.42 0.46 0.48 0.47 0.46
0.30 0.17 0.17 0.12 0.21 0.23 0.22 0.27 0.32 0.35 0.27 0.31 0.24 0.29 0.26 0.28 0.32 0.39 0.50 0.39 0.46 0.43 0.43 0.42 0.42 0.39 0.41 0.44 0.43 0.44 0.49 0.49 0.53 0.50 0.47 0.45 0.49 0.52 0.57 0.56 0.56 0.55 0.55 0.52 0.54 0.49 0.43 0.38 0.38 0.36 0.34 0.31 0.30 0.28 0.30 0.30 0.27 0.27 0.26 0.27 0.30 0.30 0.31 0.31 0.28 0.24 0.26 0.24 0.21 0.23 0.23 0.22 0.20 0.22 0.24 0.26 0.29 0.31 0.33 0.35 0.38 0.39 0.39 0.46 0.46 0.46 0.48 0.48
0.18 0.22 0.24 0.25 0.15 0.11 0.13 0.16 0.23 0.28 0.33 0.34 0.30 0.32 0.27 0.27 0.29 0.28 0.42 0.44 0.45 0.46 0.37 0.41 0.43 0.42 0.40 0.38 0.41 0.39 0.43 0.45 0.47 0.44 0.48 0.50 0.50 0.53 0.53 0.57 0.54 0.56 0.57 0.54 0.57 0.49 0.43 0.37 0.40 0.40 0.38 0.38 0.36 0.34 0.35 0.34 0.32 0.31 0.30 0.29 0.29 0.32 0.33 0.31 0.31 0.31 0.30 0.27 0.22 0.23 0.26 0.26 0.24 0.24 0.26 0.28 0.30 0.31 0.34 0.36 0.40 0.44 0.45 0.46 0.47 0.47 0.47 0.48
0.27 0.29 0.27 0.33 0.21 0.22 0.18 0.18 0.20 0.22 0.25 0.32 0.32 0.33 0.29 0.29 0.27 0.31 0.32 0.36 0.40 0.41 0.43 0.31 0.33 0.37 0.39 0.41 0.40 0.37 0.40 0.37 0.38 0.46 0.44 0.45 0.49 0.50 0.48 0.52 0.56 0.60 0.57 0.54 0.55 0.55 0.47 0.41 0.42 0.42 0.39 0.39 0.39 0.38 0.38 0.36 0.35 0.34 0.33 0.33 0.33 0.34 0.35 0.35 0.33 0.33 0.31 0.29 0.30 0.29 0.27 0.26 0.27 0.27 0.30 0.31 0.34 0.35 0.37 0.42 0.44 0.46 0.46 0.46 0.47 0.48 0.49 0.50
0.22 0.21 0.21 0.30 0.26 0.24 0.26 0.27 0.23 0.20 0.17 0.24 0.27 0.30 0.30 0.31 0.30 0.33 0.39 0.36 0.32 0.35 0.44 0.36 0.33 0.36 0.38 0.40 0.41 0.36 0.38 0.41 0.40 0.39 0.46 0.47 0.47 0.52 0.50 0.51 0.51 0.59 0.58 0.53 0.53 0.57 0.49 0.42 0.46 0.45 0.41 0.40 0.41 0.41 0.40 0.39 0.37 0.35 0.36 0.37 0.38 0.38 0.38 0.37 0.34 0.33 0.33 0.33 0.35 0.33 0.30 0.27 0.29 0.34 0.35 0.36 0.38 0.40 0.42 0.42 0.44 0.47 0.48 0.48 0.48 0.48 0.49 0.50
0.32 0.34 0.33 0.25 0.20 0.21 0.23 0.24 0.23 0.21 0.17 0.19 0.17 0.21 0.26 0.29 0.30 0.34 0.34 0.44 0.38 0.35 0.39 0.35 0.36 0.36 0.40 0.39 0.40 0.40 0.42 0.43 0.44 0.43 0.46 0.48 0.43 0.50 0.49 0.49 0.56 0.51 0.55 0.53 0.55 0.56 0.54 0.46 0.51 0.48 0.40 0.39 0.42 0.40 0.40 0.42 0.42 0.39 0.37 0.37 0.37 0.36 0.33 0.34 0.33 0.35 0.34 0.32 0.33 0.34 0.32 0.28 0.30 0.37 0.38 0.39 0.40 0.41 0.41 0.44 0.46 0.48 0.49 0.49 0.48 0.48 0.49 0.50
0.35 0.41 0.41 0.30 0.19 0.22 0.20 0.21 0.21 0.21 0.17 0.19 0.19 0.18 0.17 0.20 0.28 0.32 0.29 0.40 0.44 0.46 0.46 0.45 0.43 0.40 0.37 0.38 0.36 0.38 0.40 0.43 0.44 0.47 0.50 0.55 0.57 0.56 0.59 0.58 0.57 0.53 0.52 0.52 0.57 0.52 0.52 0.48 0.44 0.44 0.38 0.37 0.41 0.43 0.43 0.43 0.41 0.36 0.35 0.35 0.34 0.35 0.36 0.38 0.41 0.41 0.38 0.36 0.34 0.32 0.29 0.31 0.35 0.39 0.38 0.39 0.41 0.41 0.43 0.45 0.47 0.49 0.49 0.49 0.48 0.48 0.51 0.52
Wind_Speed
26 25 24 24 23 22 22 21 20 19 19 18 17 17 16 15 15 15 14 14 14 14 13 13 13 12 12 11 11 10 10 10 11 10 11 11 12 11 11 11 11 11 11 10 10 11 10 9 8 8 8 8 8 8 8 7 7 6 5 5 5 5 5 5 4 4 2 2 3 3 3 3 2 2 2 2 2 2 3 3 4 4 4 4 4 4 3 4
26 26 25 24 24 23 22 22 21 20 19 19 18 17 17 16 16 15 15 15 14 14 14 14 13 13 12 12 11 11 11 11 11 11 11 12 12 11 11 11 11 11 11 11 10 11 10 10 9 9 9 9 8 8 8 7 7 6 6 6 6 6 5 5 5 4 3 2 3 3 3 3 3 3 2 2 3 3 3 4 4 5 6 5 5 4 4 5
27 26 26 25 24 24 23 22 22 21 20 19 19 18 17 17 16 16 15 15 15 15 14 14 14 13 12 12 12 11 11 11 11 11 12 12 12 12 12 11 11 11 10 11 11 11 11 11 10 9 9 9 8 8 8 7 7 7 7 7 7 7 6 5 6 5 4 3 3 3 3 3 3 3 3 3 3 3 4 5 5 6 7 6 5 5 5 6
27 27 26 26 25 24 24 23 22 22 21 20 20 19 18 18 17 16 16 16 15 15 15 15 14 13 13 12 12 12 11 10 12 12 12 12 12 12 12 12 11 11 10 10 11 10 10 10 9 9 9 9 9 8 8 7 8 8 7 7 8 7 5 6 6 6 5 3 3 3 3 3 3 3 3 3 2 3 5 6 6 7 7 6 6 6 6 7
27 27 27 26 25 25 24 24 23 22 22 21 21 20 19 19 18 17 17 16 16 16 16 15 15 14 13 13 13 12 11 10 12 13 12 12 12 12 12 12 11 11 11 10 10 10 10 10 9 9 9 9 9 8 8 8 8 7 7 8 8 6 5 6 6 6 5 4 3 4 3 4 3 3 4 4 3 4 5 5 6 7 7 6 6 7 7 8
28 27 27 26 26 25 25 24 23 23 22 22 21 21 20 19 19 18 17 17 17 16 16 16 15 14 14 13 13 12 11 11 12 13 13 12 12 13 12 12 11 11 10 10 10 10 10 10 9 9 9 9 9 8 9 9 8 8 8 8 8 7 6 6 6 6 5 5 5 5 5 4 3 4 5 5 6 6 5 5 5 6 6 7 7 7 8 9
28 27 27 27 26 25 25 24 24 23 23 22 22 21 21 20 20 19 18 18 17 17 17 16 15 15 14 14 14 12 12 12 12 13 13 13 13 13 12 12 11 11 10 10 10 10 10 10 10 10 9 9 10 9 8 9 8 7 8 8 8 7 6 6 6 6 6 6 6 6 5 5 5 5 5 7 9 8 7 6 6 6 6 6 6 8 9 10
28 27 27 27 26 26 25 25 24 23 23 23 22 22 22 21 20 20 19 19 18 18 17 17 16 15 15 15 14 13 13 13 13 13 13 13 13 13 13 12 11 11 10 10 11 11 10 10 11 11 9 9 10 9 9 8 7 7 8 9 8 7 7 7 6 6 6 6 7 5 5 6 6 6 6 9 10 9 8 7 7 7 7 7 7 9 10 11
27 27 27 27 27 26 26 25 24 24 23 23 22 22 22 22 21 20 20 19 19 18 18 17 16 16 15 15 14 13 14 14 14 14 13 14 13 13 13 12 11 11 10 10 11 11 11 11 12 12 11 10 10 9 9 9 9 8 9 8 7 7 8 7 7 6 7 7 7 6 6 7 7 7 8 10 10 9 9 8 8 8 8 9 9 10 10 11
27 27 27 27 27 26 26 25 25 24 24 23 23 22 22 22 22 21 21 20 20 19 18 18 17 16 16 15 14 14 15 14 14 15 14 15 14 13 13 12 11 11 11 10 10 11 11 12 12 11 11 10 9 9 9 9 9 9 8 8 7 8 8 8 8 8 8 8 8 8 8 8 7 7 8 8 8 8 8 8 9 9 10 10 10 11 11 12
27 27 27 27 26 26 26 26 25 25 24 24 23 23 22 22 22 21 21 21 21 20 19 18 17 17 17 16 15 15 15 14 15 15 15 15 14 13 13 13 12 12 11 11 11 11 11 12 12 11 11 10 10 9 9 9 9 8 8 8 8 8 9 8 8 8 9 8 8 8 8 9 7 7 9 8 8 8 8 9 10 10 11 11 11 11 11 12
27 26 26 26 26 26 26 26 25 25 25 24 24 23 23 23 22 22 22 22 21 21 20 19 18 18 17 16 16 17 15 15 16 15 15 16 15 15 14 13 13 12 12 11 12 12 12 12 12 11 11 11 11 9 9 9 9 9 8 9 10 9 9 9 9 9 9 8 9 8 9 10 9 10 11 10 9 9 10 11 11 11 11 11 12 12 12 13
27 27 26 26 26 26 26 25 25 25 25 25 24 24 23 23 23 22 22 22 22 21 21 20 19 19 18 17 17 17 16 16 16 16 16 16 16 15 14 13 13 12 12 12 12 12 12 12 11 11 12 11 11 11 10 9 10 10 9 9 10 9 10 10 9 10 9 9 9 8 10 11 11 13 13 11 10 10 11 12 12 12 12 12 12 12 13 13
27 27 27 26 26 26 26 25 25 25 25 24 24 24 24 24 23 23 23 23 22 22 21 20 20 19 18 18 18 18 17 17 17 17 17 17 16 15 14 14 13 13 12 12 12 12 12 12 11 11 12 11 12 11 10 9 10 10 10 10 10 10 11 11 10 10 10 10 9 9 11 12 12 14 12 11 11 11 12 13 13 13 13 13 13 13 14 14
27 27 27 27 26 26 26 25 25 25 25 24 24 24 24 24 24 24 23 23 23 22 22 21 20 20 19 19 19 18 18 18 17 18 18 18 17 16 15 14 14 13 13 12 12 12 12 12 11 11 12 11 11 11 11 11 10 10 11 11 10 10 12 12 10 10 10 10 9 9 11 12 13 14 12 11 11 11 13 14 14 14 15 14 14 14 15 15
26 26 27 27 26 26 26 25 25 25 25 25 25 25 25 25 24 24 24 24 23 23 22 21 21 20 19 19 20 19 19 19 19 19 19 18 18 17 16 15 14 13 13 13 13 13 13 12 12 12 12 12 11 11 11 11 11 11 11 12 11 10 11 11 10 11 10 10 11 10 11 12 12 13 12 11 10 10 13 15 15 15 15 15 15 15 16 16
25 26 26 27 27 26 26 26 25 25 25 25 25 25 25 25 25 24 24 24 23 23 22 22 21 21 20 20 20 20 20 20 20 20 19 19 18 18 16 15 15 14 14 14 13 13 13 13 13 13 12 12 12 11 11 12 13 13 11 11 12 11 11 11 11 11 10 10 12 12 12 13 14 14 14 13 11 12 14 16 17 16 17 17 17 17 18 18
25 26 26 26 27 26 26 26 26 25 25 25 25 26 26 25 25 25 25 24 24 23 23 23 22 21 22 22 21 20 20 20 20 20 20 19 19 18 17 16 16 15 14 14 14 14 14 14 14 14 13 13 13 12 13 14 13 12 11 11 12 12 12 12 12 12 11 11 12 13 13 15 16 16 18 17 14 14 16 17 18 19 19 20 20 20 20 20
25 25 26 26 26 26 26 26 26 25 25 25 25 26 25 25 25 25 25 25 25 24 24 24 24 22 22 22 22 21 20 21 21 21 21 21 20 19 17 17 16 16 15 15 15 14 15 14 14 14 14 14 15 14 14 15 13 11 12 11 12 12 12 13 14 13 12 13 14 15 15 16 16 16 18 18 15 15 18 18 19 20 21 21 21 22 21 21
26 25 26 26 26 26 26 26 26 25 25 25 25 25 25 25 24 25 26 26 26 26 24 24 25 24 22 21 22 22 21 21 22 22 22 22 21 20 18 17 17 16 16 17 16 15 15 15 16 16 16 16 16 15 13 13 12 11 12 11 12 13 14 14 14 14 13 14 16 16 16 17 17 16 18 19 17 17 18 19 20 21 21 22 22 23 23 23
27 27 26 26 26 26 26 26 26 25 25 25 26 25 26 26 24 25 26 26 27 27 26 25 25 25 24 23 23 23 22 22 22 23 23 23 22 21 20 19 17 17 18 17 17 16 15 17 18 17 17 17 16 14 13 12 12 12 12 13 14 14 15 15 14 15 14 15 16 15 17 19 18 17 18 19 18 18 20 20 21 22 22 22 23 24 24 23
29 29 28 27 26 26 27 26 26 26 26 26 26 26 26 26 25 25 25 25 27 27 27 27 27 26 26 25 24 24 23 22 23 24 24 23 23 23 22 19 19 19 19 18 17 17 17 18 19 18 17 15 14 14 13 13 13 13 13 14 15 14 15 15 15 15 14 15 17 16 18 20 19 19 19 19 19 20 21 21 21 22 22 23 23 24 24 24
31 30 29 29 28 27 27 26 26 26 26 26 26 26 26 26 26 25 25 25 26 27 27 28 28 28 27 26 26 25 24 24 24 25 25 24 23 24 22 20 20 20 20 20 20 18 18 19 19 18 17 15 14 15 14 14 14 14 14 15 15 15 14 15 15 16 15 16 18 17 20 21 20 19 18 19 19 19 21 22 22 23 23 24 25 24 24 25
32 31 31 30 29 28 27 27 26 26 27 27 27 28 27 26 26 26 25 25 27 27 28 29 29 29 29 28 27 26 26 26 25 26 26 25 24 24 23 22 21 21 22 22 21 20 20 19 18 17 17 16 15 16 15 16 17 16 16 16 16 16 16 17 17 17 17 18 18 19 21 21 18 17 17 16 16 17 19 20 21 22 23 24 25 25 25 25
31 32 32 31 30 29 28 27 27 27 27 27 28 28 28 27 27 26 25 26 28 28 28 29 29 29 30 28 28 27 26 27 27 27 27 27 25 24 23 23 22 23 23 21 20 22 22 21 18 17 16 16 16 17 18 17 17 18 18 18 18 17 17 17 17 16 18 18 18 18 19 19 18 17 17 16 17 18 18 18 21 22 22 23 24 25 25 25
31 32 33 32 32 31 29 28 28 27 27 27 28 29 28 28 27 26 25 25 29 30 29 29 29 29 29 29 28 27 26 28 28 27 27 28 27 25 24 24 23 24 23 21 22 23 22 21 19 18 18 18 18 19 20 18 17 19 19 19 19 17 16 17 17 17 18 19 19 17 17 19 21 20 18 17 18 19 18 19 22 23 23 23 24 24 24 24
30 32 33 33 33 32 30 29 28 27 27 27 28 28 29 28 26 26 25 24 29 31 29 30 30 29 29 29 29 27 27 28 27 27 28 28 28 26 25 25 24 24 24 22 23 24 22 21 20 19 19 19 20 21 21 19 18 20 20 17 17 17 17 18 17 18 19 20 21 19 18 21 22 21 18 17 17 18 19 20 21 21 22 23 22 22 22 21
30 31 33 34 34 33 32 31 30 29 27 27 28 28 29 28 27 26 24 24 27 28 28 30 30 30 29 29 29 28 28 27 25 27 29 28 28 26 26 27 25 25 24 24 26 25 23 23 23 22 21 22 23 22 21 19 19 22 20 17 17 17 18 17 17 18 19 20 22 20 18 19 23 22 19 17 18 19 19 20 21 21 21 21 20 20 19 19
29 30 32 35 35 34 33 32 32 31 30 27 27 28 28 27 27 25 24 26 28 27 27 28 29 30 30 30 30 28 28 28 26 27 27 28 29 27 27 28 26 24 25 25 27 26 24 24 25 23 22 24 23 21 22 21 20 21 19 17 17 17 17 17 17 18 18 20 22 20 18 18 22 24 20 18 19 19 19 20 20 21 22 20 19 19 18 18
29 29 30 33 35 34 33 33 33 32 31 29 28 29 27 27 27 25 25 28 30 29 28 28 29 29 29 30 30 29 28 29 28 27 26 27 27 26 27 27 25 25 26 25 26 27 26 25 25 24 24 24 22 21 21 20 20 20 19 18 17 18 18 18 19 18 18 21 22 21 19 18 21 23 19 18 19 18 19 19 19 20 21 19 18 17 17 18
29 30 30 31 33 33 32 32 32 33 32 30 30 30 28 27 27 27 28 30 29 29 30 29 29 29 29 30 30 29 29 29 29 28 28 28 27 27 27 27 26 25 27 28 28 28 28 27 27 26 26 24 22 22 21 21 21 21 20 19 18 19 19 19 20 18 18 21 21 20 19 18 21 23 20 20 21 20 19 18 18 19 20 18 17 17 18 19
30 31 31 31 32 33 33 31 31 32 32 31 30 31 31 29 29 30 31 28 28 31 32 31 30 30 30 29 28 29 29 29 30 29 29 29 29 29 29 29 28 26 28 31 30 29 29 30 29 27 27 27 25 23 23 23 23 22 21 20 19 19 19 19 20 19 20 22 21 20 19 21 25 26 24 24 23 21 19 18 19 20 21 20 20 20 21 21
32 32 32 33 33 33 34 32 31 30 31 31 30 30 31 30 32 35 35 30 28 29 29 29 30 30 30 29 29 29 29 29 30 29 29 29 30 31 31 30 30 29 29 30 29 29 29 30 30 29 30 30 28 27 26 26 25 24 23 22 20 19 19 21 21 20 22 22 21 21 21 23 26 26 25 24 23 21 20 21 22 22 24 25 25 24 24 24
33 33 33 34 34 34 34 34 33 31 29 30 29 29 30 32 33 36 37 35 31 28 27 28 28 28 30 30 31 30 29 30 31 29 29 29 30 32 32 32 32 30 29 28 28 29 29 30 30 30 30 30 31 30 28 26 26 26 25 23 24 23 22 22 21 21 22 21 20 21 21 22 23 22 23 23 23 23 24 25 24 24 25 26 27 27 26 24
33 34 34 35 35 35 35 35 35 34 31 29 28 29 31 31 31 32 35 34 32 30 29 28 26 27 30 30 30 30 29 30 30 29 30 31 31 32 32 32 32 30 30 30 29 29 30 31 31 29 28 28 29 28 26 25 26 26 25 24 27 27 24 23 22 22 22 21 22 23 24 26 26 27 28 27 27 26 26 26 24 24 25 24 26 26 25 24
34 34 35 35 36 36 37 36 35 35 35 31 29 31 32 30 29 30 30 30 30 30 30 29 27 28 30 30 30 31 29 29 29 29 31 31 32 32 32 32 33 32 32 32 30 28 28 31 31 28 27 28 27 26 26 26 26 26 26 28 28 26 23 22 24 23 21 24 25 24 27 30 28 30 31 28 27 26 24 24 23 24 24 23 24 25 25 25
34 35 36 36 37 37 37 38 36 36 36 33 33 34 32 30 29 28 27 27 28 29 29 31 31 30 31 31 31 32 31 30 30 30 31 31 31 33 32 32 32 34 34 32 31 31 29 29 30 28 28 29 28 26 25 26 26 26 28 29 27 25 24 23 23 22 21 24 26 25 28 30 27 27 27 24 25 26 25 25 25 25 24 24 24 25 27 27
35 35 36 37 38 38 37 38 38 37 35 34 36 37 34 32 31 29 28 26 26 27 29 31 31 30 30 31 31 31 31 31 32 32 32 31 32 33 32 32 31 34 35 32 31 32 30 30 30 28 28 28 27 27 27 27 27 28 29 28 25 25 25 24 24 23 23 24 25 26 28 29 28 29 27 26 27 28 27 26 26 25 25 25 26 27 27 26
34 35 35 36 37 38 38 38 38 37 36 36 38 39 37 36 34 32 30 29 27 27 29 30 29 28 29 30 29 29 31 32 32 33 33 33 34 34 33 32 31 32 34 32 32 32 30 30 30 29 29 28 27 29 30 30 28 28 28 27 26 26 25 25 25 24 24 24 25 26 26 28 30 29 28 28 28 27 27 25 24 25 27 26 26 25 25 23
32 33 35 35 35 37 39 38 38 37 37 38 40 39 38 38 37 36 34 32 30 30 30 30 30 29 29 29 28 28 30 31 31 32 32 33 34 34 33 33 31 30 31 32 32 31 30 31 31 30 30 29 30 32 33 32 30 29 30 29 29 28 26 26 27 27 25 25 25 25 27 30 31 28 27 28 28 26 25 25 25 26 28 27 24 23 23 22
31 32 34 34 35 37 38 38 38 38 38 39 41 40 38 38 38 38 37 35 33 32 31 31 31 31 30 30 30 29 29 30 31 31 32 33 34 34 34 33 31 29 29 31 33 32 31 32 32 31 31 32 33 33 32 32 32 31 32 32 32 31 29 28 29 29 28 27 26 25 27 32 31 28 29 30 28 27 26 27 28 28 27 26 25 23 23 22
32 32 33 33 35 37 38 38 38 38 39 40 41 40 39 38 38 39 38 36 35 34 33 32 32 31 30 30 31 30 30 30 31 32 32 33 34 34 33 33 32 30 30 31 33 32 31 31 31 33 34 34 34 32 31 32 32 32 33 33 33 34 33 31 29 29 28 28 28 26 28 34 32 28 31 32 30 29 29 30 31 29 27 25 25 25 24 23
33 33 33 33 35 38 38 38 38 39 40 42 42 40 39 39 39 39 39 38 37 36 36 35 34 33 32 31 30 30 30 30 31 33 33 33 34 34 32 32 32 31 31 31 31 31 30 31 32 33 34 33 33 32 31 31 31 33 35 34 34 35 35 33 31 30 28 29 29 27 29 35 33 29 31 34 33 33 33 31 30 30 29 27 27 28 26 25
33 34 35 34 36 38 37 37 39 40 41 42 42 41 40 41 41 40 40 40 39 38 38 37 36 36 35 32 31 31 31 30 30 32 32 31 32 31 31 32 33 33 33 33 33 32 32 33 33 31 30 31 32 32 33 34 34 36 36 35 35 36 34 32 32 31 30 32 32 30 32 37 35 31 32 35 34 34 34 32 31 31 31 30 29 29 27 26
33 34 35 36 37 38 38 37 37 39 41 42 42 42 42 42 42 43 43 42 41 39 38 39 38 36 35 34 33 33 33 32 31 31 31 31 30 29 30 33 34 35 35 34 33 33 33 35 35 33 33 34 34 34 36 36 36 36 37 36 37 37 35 35 34 33 33 36 36 35 37 40 38 34 35 36 35 35 35 34 33 33 32 32 31 30 29 28
34 34 34 35 38 40 39 38 37 38 39 41 42 42 44 43 42 43 44 43 42 42 41 40 39 37 37 36 36 36 36 35 33 32 32 32 31 29 29 32 34 36 36 33 31 32 33 35 37 38 39 40 40 40 37 35 35 38 40 40 39 39 39 38 36 36 37 39 40 41 42 44 43 39 37 37 36 36 36 34 34 34 33 33 32 31 30 30
36 35 34 34 35 38 40 40 39 38 38 40 40 41 43 45 43 42 43 43 43 43 42 41 41 41 40 39 39 38 38 37 36 36 36 34 33 31 29 30 32 36 35 33 32 31 32 34 37 40 43 43 43 43 39 36 39 41 42 42 41 40 40 40 40 41 40 39 42 45 44 45 47 43 39 38 37 36 36 35 35 35 33 32 32 33 33 33
37 36 36 35 34 35 38 40 40 40 39 39 40 40 41 43 43 43 43 43 43 44 43 43 44 45 44 42 41 40 40 39 39 39 38 36 35 33 32 31 31 33 33 32 32 32 33 35 37 39 41 43 43 42 39 39 41 42 42 43 42 40 41 43 44 46 44 43 45 47 45 46 48 44 40 38 37 37 37 37 36 34 32 32 33 35 35 35
38 37 36 36 35 35 36 36 37 40 41 40 40 40 40 41 43 43 41 41 43 43 44 44 46 46 46 44 43 43 42 40 40 40 39 38 36 35 35 34 32 31 30 31 32 32 33 36 37 38 39 41 43 42 40 40 42 42 42 43 42 41 43 45 47 49 50 49 49 48 48 49 48 43 41 39 38 38 38 36 35 34 33 34 35 36 37 37
39 38 37 36 36 35 35 35 35 38 40 41 42 42 41 41 42 41 40 41 42 42 44 47 47 46 46 46 46 47 46 44 43 42 40 39 38 37 36 36 33 31 30 30 31 31 33 35 36 35 37 39 41 42 40 40 41 41 40 40 40 41 44 47 49 49 49 49 49 48 50 51 46 40 39 39 38 38 38 37 37 37 37 37 38 39 39 39
40 39 38 37 37 37 36 36 36 37 38 41 43 43 43 44 43 41 40 42 43 42 43 46 47 45 45 47 48 48 48 46 46 45 42 41 41 39 38 37 35 33 32 31 30 30 31 33 33 33 35 37 39 41 39 37 37 39 39 39 41 43 45 46 46 45 45 46 47 46 48 48 41 36 37 38 37 37 38 39 39 39 39 40 40 41 41 40
42 40 38 38 38 38 37 37 37 38 40 40 41 42 44 45 44 43 42 42 43 44 43 43 44 43 44 47 48 49 50 49 48 48 46 44 44 42 39 39 38 37 36 34 32 31 31 31 32 32 33 35 38 38 36 34 34 38 41 42 43 45 44 42 42 44 45 45 44 44 46 45 39 35 37 38 37 37 38 38 39 40 40 41 41 42 41 40
Wind_Direction
205 204 204 204 204 205 205 205 205 206 207 208 209 209 210 211 211 212 212 211 210 210 210 210 210 211 212 213 214 215 214 210 209 209 209 211 213 212 213 212 212 215 213 212 211 210 212 214 215 211 207 209 211 211 212 216 216 219 220 219 226 227 234 227 218 231 243 257 235 226 216 201 242 243 236 261 277 277 258 252 250 251 249 249 261 269 255 222
206 206 206 206 206 207 207 207 208 209 209 210 211 211 212 212 213 213 213 213 213 212 212 211 212 213 214 215 216 216 214 210 209 210 212 214 216 215 214 212 213 215 212 210 209 207 209 215 217 212 210 211 214 215 213 220 219 219 222 224 232 228 234 232 218 227 254 265 223 217 224 218 236 231 230 257 278 283 264 260 258 260 256 251 258 253 239 226
208 208 208 208 208 209 209 210 210 211 211 212 213 213 213 214 215 215 215 215 214 214 213 213 214 215 216 217 218 217 214 212 212 215 215 216 216 214 214 212 212 212 210 209 208 207 208 211 213 212 213 213 216 217 215 225 225 223 222 229 239 232 239 243 225 230 251 258 215 214 233 236 246 235 236 252 270 274 254 255 253 254 254 250 251 241 233 231
210 210 210 210 210 211 211 211 212 213 213 214 214 214 215 215 215 216 216 215 215 215 214 214 215 217 218 219 219 217 215 215 216 217 216 217 216 213 213 211 211 211 209 208 208 208 208 208 211 212 213 216 223 220 220 230 226 225 224 229 239 234 242 244 232 239 248 248 225 218 232 246 247 237 239 237 258 273 257 252 248 253 255 251 250 243 238 234
211 211 211 211 212 212 213 213 214 214 215 215 215 215 215 216 216 216 217 216 216 215 214 215 217 218 220 221 219 217 215 215 218 217 216 217 214 212 210 208 209 209 208 209 210 210 209 210 211 213 215 220 226 223 224 230 221 224 233 233 234 232 243 246 240 244 242 243 233 220 230 242 243 244 242 227 242 262 260 260 258 262 262 253 250 246 244 242
212 213 213 213 213 213 214 215 215 216 216 216 216 216 216 216 217 217 217 217 217 216 215 216 218 219 221 220 218 216 214 216 219 216 217 216 212 210 207 206 208 207 208 210 212 211 212 213 211 215 217 219 224 220 223 230 224 224 237 238 234 237 246 249 249 247 238 234 229 228 238 243 242 253 252 237 244 255 260 270 272 275 271 259 253 247 247 247
213 213 214 214 215 215 216 216 217 217 217 217 217 217 217 217 217 218 218 218 218 217 217 218 219 220 221 219 218 218 217 221 221 215 216 213 209 209 205 206 208 209 211 210 212 211 210 212 210 211 213 216 220 218 223 231 227 222 231 238 236 242 250 252 252 246 241 239 239 240 244 248 246 254 264 254 253 258 263 273 277 279 279 268 260 253 251 249
213 214 214 215 216 216 217 217 218 218 218 218 219 218 218 218 218 218 219 218 218 217 218 219 220 221 220 218 218 221 223 223 220 216 215 210 208 208 205 208 210 210 211 211 212 209 210 212 209 211 214 218 216 218 225 227 231 228 229 235 236 245 252 250 249 247 249 249 247 246 248 255 256 260 269 262 260 264 268 275 279 277 276 270 265 260 257 255
213 214 215 215 216 217 217 218 218 219 219 219 219 219 219 219 218 219 219 218 218 218 219 220 222 222 220 218 217 221 225 223 219 216 214 210 209 208 208 211 212 211 210 213 214 210 213 214 213 215 214 216 214 220 228 224 231 231 228 232 235 247 254 249 249 254 255 253 251 250 259 265 263 268 271 264 265 271 271 274 278 276 272 271 270 267 262 261
213 214 215 216 216 217 218 218 219 219 219 220 220 220 219 219 219 219 218 218 218 219 220 221 223 222 219 219 218 221 224 222 218 216 213 210 209 210 211 214 214 212 212 214 215 213 214 213 214 213 210 214 215 223 230 225 226 228 226 229 237 249 252 249 248 256 257 255 256 252 258 264 265 269 268 266 271 275 272 272 276 274 272 274 276 274 269 266
213 214 214 215 216 217 218 218 219 219 220 220 220 220 220 219 219 218 218 218 219 220 220 221 222 221 220 219 218 221 223 221 218 216 213 211 210 212 215 217 217 214 213 214 215 216 213 211 211 212 216 219 218 225 230 226 226 231 230 233 255 260 252 254 252 257 258 254 257 254 258 264 264 263 259 265 273 275 271 272 278 277 277 279 279 279 275 271
214 214 214 215 215 217 217 218 219 219 220 220 221 221 220 219 218 218 218 219 220 221 221 222 222 221 221 222 221 222 223 221 219 215 213 212 212 215 216 218 219 216 214 214 217 219 214 212 212 216 221 216 218 227 226 228 230 235 236 238 260 267 259 262 259 259 257 254 258 258 265 265 257 255 259 269 273 274 275 274 279 278 279 281 280 281 278 275
215 215 215 215 215 216 217 218 219 220 220 220 221 220 220 219 218 218 219 220 221 222 223 223 223 222 221 223 224 224 224 223 219 215 215 214 214 216 218 219 218 217 215 213 217 219 216 217 216 215 217 215 222 226 224 233 235 238 245 242 253 264 261 263 263 262 255 253 259 257 263 263 259 258 262 271 273 274 276 275 277 278 280 281 280 281 279 277
216 216 216 216 217 217 217 218 219 220 220 220 220 220 219 219 219 220 220 221 222 223 224 223 223 222 222 224 225 225 225 223 219 217 218 217 215 217 220 220 219 218 218 215 217 220 219 219 217 216 221 221 222 224 231 244 242 242 247 248 251 252 255 262 263 259 251 254 259 255 259 263 265 266 266 272 273 271 272 274 276 278 280 280 280 281 280 279
216 216 217 217 218 218 218 219 220 220 220 220 221 220 220 220 220 221 221 222 222 223 224 224 224 223 223 226 226 225 225 223 221 220 219 217 216 218 221 220 219 220 220 219 220 222 222 222 222 222 226 227 223 227 239 245 246 245 245 249 253 248 255 265 261 254 253 258 259 254 260 266 267 268 271 275 274 269 270 274 277 278 279 280 281 281 282 282
216 216 217 218 218 219 219 220 220 221 221 221 221 221 221 221 221 222 222 222 223 223 223 224 225 222 223 226 225 225 225 223 222 221 220 218 217 218 219 219 221 222 222 223 224 225 227 226 226 226 227 228 228 231 239 244 248 250 244 244 249 249 256 263 259 257 259 260 260 258 260 265 268 268 272 277 276 273 274 276 277 277 278 279 280 282 283 284
216 217 217 218 219 220 220 221 221 222 223 222 222 222 222 221 222 222 222 222 222 223 223 224 225 224 226 227 226 227 226 225 223 221 221 220 219 218 218 221 223 224 225 226 227 229 231 229 227 230 232 233 233 232 237 243 246 249 248 246 248 249 253 259 260 261 264 261 260 262 261 262 267 271 273 275 275 275 276 277 278 278 278 278 279 281 282 283
217 217 218 218 219 220 221 222 223 223 224 224 223 222 222 222 222 221 221 222 223 223 225 225 224 226 229 228 226 227 226 225 224 222 221 221 219 219 220 223 224 226 227 229 230 230 231 231 230 231 236 238 236 232 233 238 240 240 243 246 250 251 252 257 260 261 263 263 261 263 264 265 268 272 274 274 274 274 275 277 279 280 280 280 280 281 281 281
219 218 218 219 219 220 221 222 224 224 225 224 223 221 221 222 222 222 223 224 223 224 226 226 224 225 228 228 227 227 226 225 224 223 222 222 221 220 223 225 225 226 226 228 231 231 230 231 231 230 234 236 235 232 232 235 234 233 238 242 245 251 256 256 259 263 263 264 265 263 264 268 270 272 274 274 275 275 278 279 280 281 281 281 281 281 280 280
221 220 220 220 220 220 221 223 224 224 225 224 222 222 222 222 224 226 227 226 225 224 226 227 225 226 229 229 227 226 226 226 225 225 224 223 221 221 226 229 229 229 228 228 231 233 230 230 231 231 232 233 233 232 231 234 235 235 239 245 247 251 260 261 262 268 265 264 267 266 267 270 271 272 273 275 278 278 278 280 280 281 281 281 280 280 280 279
223 223 222 222 221 221 222 223 224 224 224 223 222 223 223 223 225 227 228 228 228 226 227 228 227 228 229 229 227 225 226 227 227 227 225 225 223 223 229 230 228 231 233 230 231 235 232 230 233 233 231 231 232 229 229 235 240 242 242 247 254 254 259 262 264 271 269 266 270 273 273 272 271 273 273 274 277 278 276 277 279 279 280 281 281 281 281 281
224 224 224 224 224 223 223 224 225 225 225 224 223 224 225 224 226 228 227 229 231 229 229 229 229 230 230 229 229 226 227 228 229 229 227 225 226 227 229 229 228 230 234 232 232 237 236 235 236 232 228 230 233 231 231 236 241 246 246 250 256 257 262 266 268 272 271 267 271 277 275 273 273 274 274 272 272 274 275 275 277 279 281 282 282 282 283 283
225 225 224 225 226 226 225 225 225 226 226 225 225 225 226 226 227 229 229 230 233 232 230 230 230 231 230 231 230 227 227 228 228 230 228 225 227 228 227 228 230 230 233 233 230 232 235 239 238 230 224 228 236 237 234 239 244 247 247 249 256 259 262 265 268 272 271 269 273 276 275 274 275 275 275 274 271 274 277 276 278 280 281 282 282 283 283 282
225 225 226 225 226 227 226 226 227 227 227 227 227 226 227 228 228 230 231 232 234 233 231 231 231 231 230 231 229 226 228 230 229 229 227 225 226 229 228 228 230 231 233 232 229 231 235 238 236 230 229 229 233 237 235 239 247 250 247 247 254 257 257 261 268 272 273 275 276 278 278 275 276 277 278 280 279 278 278 278 280 281 281 283 284 284 282 281
224 225 226 226 225 226 226 228 229 228 228 228 228 228 228 228 229 231 232 234 236 235 233 232 232 232 230 230 229 227 230 232 231 230 228 225 225 229 232 231 231 232 233 231 230 235 239 237 231 230 237 235 233 238 239 238 246 253 251 247 250 254 256 262 270 275 275 276 278 279 277 274 277 279 276 280 284 282 280 280 281 283 284 284 285 284 283 282
226 225 226 226 225 224 226 229 230 230 230 230 230 229 228 228 229 231 232 237 239 235 232 231 232 232 229 229 228 227 233 235 233 231 228 227 228 229 232 234 235 235 232 231 235 239 239 238 234 232 235 237 238 242 243 240 245 253 253 250 251 254 257 261 266 270 270 271 274 276 273 274 280 280 276 279 282 282 283 283 282 283 285 285 285 286 286 285
229 227 226 226 225 224 227 229 229 229 230 232 232 229 228 228 229 231 233 241 242 234 230 232 232 231 230 229 226 226 234 235 231 231 230 229 231 232 233 234 236 237 234 234 239 241 237 236 238 236 237 239 240 244 245 241 244 252 255 252 251 253 255 258 261 264 267 271 275 274 271 275 277 278 280 282 283 283 285 285 284 285 286 287 288 289 289 288
230 228 226 225 224 225 228 229 229 230 231 233 232 228 227 228 230 232 232 238 239 232 231 233 232 231 231 230 227 229 234 234 231 233 232 230 232 234 235 235 234 236 236 235 238 242 239 235 236 236 239 241 242 246 243 239 246 254 254 252 252 253 256 259 261 265 271 276 274 270 271 274 273 276 283 285 283 284 284 283 285 288 289 290 292 292 291 289
232 231 229 225 225 227 228 229 230 231 232 233 230 226 225 227 230 232 233 235 236 234 233 232 231 232 231 229 231 233 235 236 235 234 233 232 233 236 236 235 234 235 239 239 239 243 242 239 237 236 239 241 244 249 245 241 248 251 250 253 257 260 262 264 264 266 272 274 268 264 267 272 274 276 281 284 283 282 283 284 287 289 290 291 293 292 291 290
232 232 231 227 226 227 228 229 230 230 232 233 230 225 224 228 229 229 233 235 235 236 235 233 232 232 229 229 235 237 236 238 237 233 234 235 236 238 236 235 236 236 241 244 241 243 245 243 241 240 241 242 242 248 250 247 245 245 249 255 260 264 265 266 267 268 271 271 268 265 265 269 274 275 276 279 280 281 284 288 291 289 287 291 294 292 291 291
232 232 232 229 227 227 228 230 229 228 229 231 229 226 226 231 230 228 233 237 238 238 236 235 235 233 229 230 235 236 236 239 237 233 235 237 237 238 236 236 238 239 243 245 244 246 246 245 245 244 243 242 243 248 252 250 246 247 252 254 257 264 267 268 269 267 265 267 270 271 270 267 265 271 278 280 281 283 284 286 291 288 284 289 294 292 292 293
233 232 231 230 228 228 228 230 229 227 228 229 229 228 229 231 232 232 234 237 239 239 236 236 237 234 232 234 236 235 235 238 237 235 236 237 236 237 238 237 237 240 243 243 244 248 246 245 247 246 245 242 243 246 250 252 251 250 251 251 255 263 267 266 265 263 262 265 269 270 270 266 264 271 279 279 279 282 278 278 285 285 282 287 292 292 293 292
234 233 232 230 229 229 229 229 228 227 228 228 227 229 229 229 232 233 233 234 237 240 238 237 238 236 233 234 236 236 236 238 237 237 238 237 237 239 241 241 238 240 243 242 243 245 247 250 246 244 246 244 241 243 245 249 249 248 248 247 250 255 260 262 263 265 265 266 268 267 267 268 270 276 277 273 275 276 274 277 282 282 281 285 289 291 292 290
236 234 233 231 230 229 228 228 227 227 228 226 225 227 226 229 233 233 232 234 237 241 242 239 237 236 234 236 238 236 237 239 237 237 239 236 236 239 240 241 240 241 242 243 243 242 245 250 245 243 246 243 242 245 245 247 248 249 249 247 247 248 251 257 259 261 264 267 267 265 265 266 270 276 276 274 279 280 278 281 283 282 281 284 287 289 289 288
237 235 233 232 232 230 228 228 227 227 226 224 225 225 224 228 233 232 233 235 236 239 242 241 237 234 235 239 241 238 237 240 238 238 239 237 238 239 239 239 238 239 239 241 245 244 245 250 249 249 249 242 242 247 246 246 248 250 249 247 249 250 251 257 258 257 263 269 267 263 264 266 270 276 277 277 281 282 282 283 282 281 281 283 284 284 285 286
237 236 235 234 233 231 229 228 227 227 225 224 227 227 226 231 233 231 234 235 234 234 237 240 239 236 237 238 239 238 239 239 238 238 240 240 242 241 240 241 238 237 238 240 244 245 246 251 253 253 251 246 246 248 246 245 246 247 246 245 249 251 250 254 258 261 264 265 265 264 266 271 275 276 276 277 280 282 283 283 281 280 281 282 282 281 283 285
238 238 236 235 234 232 230 228 228 227 225 225 229 229 230 234 233 232 235 235 235 233 233 238 239 237 238 239 238 238 239 239 238 238 239 241 242 241 241 244 240 237 239 241 245 246 245 250 253 251 249 249 249 247 247 249 246 244 245 247 249 252 252 252 256 263 263 262 266 265 265 271 273 274 278 280 279 280 281 281 281 281 281 281 281 280 280 282
240 239 238 237 235 232 230 228 228 228 226 228 231 231 231 232 231 231 233 233 236 235 234 237 239 239 239 239 240 239 238 238 237 238 239 240 243 241 238 243 242 239 239 241 245 247 245 249 253 250 248 250 250 245 245 249 247 244 246 248 248 249 251 251 252 257 260 261 265 266 266 268 267 270 277 278 276 278 279 280 282 281 279 280 281 279 278 280
240 239 238 238 234 231 229 228 228 228 229 230 232 232 233 233 233 232 232 233 235 235 235 237 239 241 239 238 240 240 239 239 237 238 239 239 243 242 238 241 244 241 239 238 243 246 245 246 251 251 249 249 247 243 242 245 247 246 247 248 249 249 249 249 250 253 256 258 262 266 268 267 266 269 273 274 275 276 277 279 279 278 279 281 280 278 276 276
238 237 237 237 233 229 227 227 228 229 231 232 232 233 234 234 234 233 232 233 235 235 236 237 238 239 240 239 240 240 240 240 239 239 241 240 242 245 241 240 243 243 240 238 241 245 244 245 248 251 250 246 244 245 244 243 243 244 244 244 247 249 250 252 253 252 253 256 259 263 265 266 268 271 270 272 275 275 274 274 275 281 283 280 276 275 274 273
237 236 237 237 232 227 225 227 230 232 234 235 234 235 234 234 234 234 233 234 236 237 238 238 238 238 239 239 241 241 240 241 240 240 242 241 242 245 242 240 241 242 241 240 241 243 243 244 245 246 247 246 247 250 249 245 244 244 245 245 245 246 246 251 255 253 253 256 257 259 264 267 268 270 270 273 276 274 271 272 278 283 282 277 274 273 272 271
236 236 237 236 231 226 226 231 233 233 235 235 235 236 235 235 235 234 233 234 236 238 238 239 239 239 239 240 242 241 240 241 241 241 243 243 242 244 244 241 238 237 239 242 244 244 244 245 244 245 246 247 249 251 249 248 247 247 248 248 248 247 244 246 252 254 254 256 258 261 265 267 267 268 271 274 275 273 273 278 282 280 276 274 274 273 272 269
237 237 236 236 232 227 228 234 235 234 236 236 236 237 236 236 236 235 234 234 235 236 237 238 239 239 239 240 241 240 240 241 241 240 244 245 244 245 244 242 239 238 240 244 246 245 243 243 244 247 249 250 251 251 250 249 247 247 249 248 247 248 247 247 251 254 253 254 256 261 264 266 269 270 272 274 275 275 277 279 278 275 275 275 273 271 268 265
239 238 237 237 233 230 231 234 235 235 236 236 237 237 236 237 236 235 235 235 235 235 236 238 238 239 240 241 241 240 240 241 242 242 243 245 246 246 243 240 239 241 242 244 244 243 241 242 242 244 249 251 250 249 248 248 247 248 250 248 247 247 247 249 252 254 256 254 253 257 261 266 271 274 273 273 275 277 277 276 274 273 275 276 272 269 266 263
239 238 238 238 235 234 235 236 236 237 237 236 237 236 236 238 236 235 236 236 236 236 237 238 238 238 240 241 242 242 240 241 243 243 243 245 247 248 244 240 239 242 245 246 245 242 243 244 241 240 243 245 245 246 247 248 248 249 250 248 246 246 244 247 251 251 254 255 254 255 261 266 271 274 273 272 274 276 275 274 273 272 274 274 269 266 265 266
239 239 239 238 237 236 237 238 237 238 237 236 237 237 236 237 238 236 236 237 237 236 238 239 237 238 239 239 241 242 242 242 244 244 244 245 246 248 246 243 240 241 244 246 244 243 245 246 243 241 242 244 246 249 250 250 248 248 249 248 247 246 244 246 249 249 252 256 256 257 261 266 268 269 270 271 271 272 274 274 272 271 272 270 265 263 266 269
238 239 238 238 238 237 237 237 236 237 237 237 237 238 236 237 238 238 236 237 236 236 239 240 238 237 237 237 240 242 241 242 244 244 245 246 246 248 248 246 244 244 245 245 242 242 246 247 244 244 246 247 250 251 250 249 248 248 248 248 247 247 245 244 246 249 252 256 258 259 260 263 266 267 267 269 270 270 272 272 271 270 270 267 264 265 268 270
238 240 238 238 238 238 238 237 235 235 237 237 238 239 237 237 237 237 237 238 237 236 238 240 238 237 237 236 239 242 241 241 242 243 245 247 247 248 248 248 247 246 246 247 245 244 246 248 246 247 249 250 252 253 251 250 251 251 249 248 247 246 244 244 247 250 252 253 257 261 261 261 264 267 267 267 268 268 268 269 270 269 267 265 265 266 268 270
238 240 240 239 240 239 239 238 236 235 236 236 237 238 238 237 237 237 238 239 239 237 237 239 239 238 239 238 239 241 240 240 242 243 245 247 247 248 249 250 250 248 246 248 249 247 246 248 248 248 250 251 252 253 251 250 252 253 251 250 248 246 246 247 249 252 253 254 258 263 264 263 265 267 267 266 265 265 266 269 268 265 264 264 265 266 269 271
238 239 240 240 240 240 239 239 238 238 237 236 237 237 237 238 238 238 238 238 239 239 238 239 240 239 240 240 240 241 241 240 243 244 244 245 247 247 248 250 250 250 248 247 250 249 247 248 249 250 251 252 252 253 252 250 251 253 253 252 251 249 248 249 251 253 254 256 259 262 263 265 266 265 266 265 264 263 265 266 266 264 264 266 266 267 270 271
238 239 239 240 241 240 240 239 238 239 238 236 237 238 238 239 239 239 240 239 240 241 240 240 241 241 241 241 241 242 242 242 243 244 243 244 245 246 248 249 248 249 249 248 249 250 249 250 251 250 252 252 252 253 253 251 252 252 252 252 250 250 251 251 253 254 254 256 259 259 260 263 266 265 264 263 262 261 262 263 264 264 265 265 266 267 268 269
237 238 238 240 241 239 239 239 238 238 239 238 239 239 239 240 240 240 241 241 239 242 242 241 242 243 243 242 242 243 244 244 245 246 246 246 247 247 247 247 246 246 248 248 249 250 249 250 251 249 251 252 252 252 253 253 253 252 250 250 250 251 253 254 255 255 254 255 256 257 258 262 265 265 263 263 262 262 262 262 262 262 263 263 264 266 267 268